| time (UTC) | temp F | wind direction | speed knots | gust knots | rain 1hr in | rain 24hr in | rain mn in | humidity % | barometer mb |
| 20260904133005 | 75 | 172 | 0.0 | 3.5 | 0.00 | 0.04 | 0.00 | 14 | 1008.9 |
| 20260904131503 | 0 | 110 | 0.0 | 1.7 | 0.00 | 0.04 | 0.00 | 1008.9 | |
| 20260904130059 | 0 | 106 | 0.0 | 0.0 | 0.00 | 0.04 | 0.00 | 1009.0 | |
| 20260904124555 | 0 | 118 | 0.0 | 0.0 | 0.00 | 0.04 | 0.00 | 1008.9 | |
| 20260904123051 | 0 | 198 | 0.0 | 0.0 | 0.00 | 0.04 | 0.00 | 1008.9 | |
| 20260904121547 | 0 | 198 | 0.0 | 3.5 | 0.00 | 0.04 | 0.00 | 1008.8 | |
| 20260904120049 | 0 | 203 | 0.0 | 3.5 | 0.00 | 0.04 | 0.00 | 1008.7 | |
| 20260904114537 | 0 | 204 | 0.0 | 6.1 | 0.00 | 0.04 | 0.00 | 1008.5 | |
| 20260904113034 | 0 | 188 | 0.9 | 5.2 | 0.00 | 0.04 | 0.00 | 1008.5 | |
| 20260904111537 | 0 | 186 | 0.0 | 1.7 | 0.00 | 0.04 | 0.00 | 1008.4 | |
| 20260904110024 | 0 | 186 | 0.0 | 1.7 | 0.00 | 0.04 | 0.00 | 1008.5 | |
| 20260904104520 | 0 | 213 | 0.0 | 3.5 | 0.00 | 0.04 | 0.00 | 1008.4 | |
| 20260904103015 | 73 | 261 | 0.0 | 0.9 | 0.00 | 0.04 | 0.00 | 21 | 1008.3 |
| 20260904101513 | 73 | 295 | 0.0 | 0.9 | 0.00 | 0.04 | 0.00 | 21 | 1008.2 |
| 20260904100010 | 74 | 123 | 0.0 | 3.5 | 0.00 | 0.04 | 0.00 | 26 | 1008.2 |
| 20260904094509 | 74 | 45 | 0.0 | 1.7 | 0.00 | 0.06 | 0.00 | 31 | 1008.2 |
| 20260904093008 | 74 | 231 | 0.0 | 0.0 | 0.00 | 0.06 | 0.00 | 36 | 1008.1 |
| 20260904091507 | 75 | 231 | 0.0 | 0.0 | 0.00 | 0.06 | 0.00 | 41 | 1008.1 |
| 20260904090006 | 75 | 261 | 0.0 | 0.9 | 0.00 | 0.06 | 0.00 | 42 | 1008.1 |
| 20260904084505 | 75 | 117 | 0.0 | 5.2 | 0.00 | 0.12 | 0.00 | 36 | 1008.1 |
| 20260904083005 | 75 | 82 | 0.0 | 0.0 | 0.00 | 0.12 | 0.00 | 29 | 1008.1 |
| 20260904081506 | 74 | 38 | 0.0 | 0.0 | 0.00 | 0.12 | 0.00 | 22 | 1008.2 |
| 20260904080004 | 74 | 40 | 0.0 | 0.0 | 0.00 | 0.12 | 0.00 | 18 | 1008.1 |
| 20260904074507 | 74 | 128 | 0.0 | 0.0 | 0.00 | 0.12 | 0.00 | 17 | 1008.2 |
| 20260904073003 | 74 | 124 | 0.0 | 4.3 | 0.00 | 0.12 | 0.00 | 19 | 1008.2 |
| 20260904071559 | 75 | 133 | 0.0 | 0.0 | 0.00 | 0.12 | 0.00 | 24 | 1008.3 |
| 20260904070115 | 75 | 133 | 0.0 | 0.0 | 0.00 | 0.12 | 0.00 | 31 | 1008.3 |
| 20260904064553 | 75 | 333 | 0.0 | 0.0 | 0.00 | 0.12 | 0.00 | 36 | 1008.4 |
| 20260904063100 | 76 | 325 | 0.0 | 3.5 | 0.00 | 0.12 | 0.00 | 39 | 1008.5 |
| 20260904061549 | 76 | 69 | 0.0 | 4.3 | 0.00 | 0.12 | 0.00 | 43 | 1008.4 |
| 20260904060047 | 76 | 139 | 0.9 | 4.3 | 0.00 | 0.12 | 0.00 | 46 | 1008.4 |
| 20260904054547 | 76 | 63 | 0.0 | 0.0 | 0.00 | 0.12 | 0.00 | 44 | 1008.3 |
| 20260904053044 | 77 | 37 | 0.0 | 4.3 | 0.00 | 0.12 | 0.00 | 48 | 1008.3 |
| 20260904051543 | 77 | 340 | 0.0 | 0.0 | 0.00 | 0.12 | 0.00 | 45 | 1008.1 |
| 20260904050041 | 77 | 24 | 0.0 | 5.2 | 0.00 | 0.12 | 0.00 | 45 | 1008.1 |
| 20260904044536 | 77 | 40 | 0.0 | 0.0 | 0.00 | 0.12 | 0.12 | 44 | 1008.2 |
| 20260904043032 | 77 | 30 | 0.0 | 4.3 | 0.00 | 0.12 | 0.12 | 39 | 1008.1 |
| 20260904041533 | 77 | 32 | 0.0 | 0.0 | 0.00 | 0.12 | 0.12 | 29 | 1008.2 |
| 20260904040024 | 77 | 348 | 0.0 | 0.0 | 0.00 | 0.12 | 0.12 | 28 | 1008.1 |
| 20260904034518 | 77 | 23 | 0.0 | 0.0 | 0.00 | 0.12 | 0.12 | 23 | 1008.1 |
| 20260904033014 | 77 | 30 | 0.0 | 0.0 | 0.00 | 0.12 | 0.12 | 16 | 1008.2 |
| 20260904031509 | 77 | 37 | 0.0 | 0.0 | 0.00 | 0.12 | 0.12 | 9 | 1008.2 |
| 20260904030005 | 77 | 37 | 0.0 | 0.0 | 0.00 | 0.12 | 0.12 | 12 | 1008.1 |
| 20260904024601 | 78 | 360 | 0.0 | 1.7 | 0.00 | 0.12 | 0.12 | 8 | 1008.0 |
| 20260904023056 | 78 | 237 | 0.0 | 0.0 | 0.00 | 0.12 | 0.12 | 100 | 1007.9 |
| 20260904021552 | 77 | 115 | 0.0 | 0.0 | 0.00 | 0.12 | 0.12 | 100 | 1007.8 |
| 20260904020050 | 77 | 102 | 0.0 | 0.0 | 0.00 | 0.12 | 0.12 | 100 | 1007.8 |
| 20260904014609 | 77 | 106 | 0.0 | 0.0 | 0.00 | 0.12 | 0.12 | 100 | 1007.7 |
| 20260904013041 | 77 | 105 | 0.0 | 0.0 | 0.00 | 0.12 | 0.12 | 100 | 1007.5 |
| 20260904011534 | 78 | 105 | 0.0 | 0.0 | 0.00 | 0.12 | 0.12 | 100 | 1007.2 |
| 20260904010029 | 79 | 107 | 0.0 | 0.0 | 0.00 | 0.12 | 0.12 | 15 | 1007.1 |
| 20260904004524 | 79 | 139 | 0.0 | 0.0 | 0.00 | 0.12 | 0.12 | 31 | 1007.1 |
| 20260904003019 | 80 | 139 | 0.0 | 0.0 | 0.00 | 0.12 | 0.12 | 43 | 1007.0 |
| 20260904001517 | 81 | 139 | 0.0 | 0.9 | 0.00 | 0.12 | 0.12 | 54 | 1006.9 |
| 20260904000013 | 82 | 138 | 0.0 | 0.0 | 0.00 | 0.12 | 0.12 | 59 | 1006.7 |
| 20260903234506 | 83 | 229 | 0.0 | 1.7 | 0.00 | 0.12 | 0.12 | 63 | 1006.5 |
| 20260903233001 | 83 | 129 | 0.0 | 0.0 | 0.00 | 0.12 | 0.12 | 67 | 1006.5 |
| 20260903231557 | 84 | 135 | 0.0 | 6.1 | 0.00 | 0.12 | 0.12 | 69 | 1006.5 |
| 20260903230055 | 84 | 146 | 0.0 | 6.1 | 0.00 | 0.12 | 0.12 | 69 | 1006.3 |
| 20260903224552 | 85 | 298 | 0.0 | 7.8 | 0.00 | 0.12 | 0.12 | 69 | 1006.1 |
| 20260903223111 | 85 | 256 | 0.0 | 7.8 | 0.00 | 0.12 | 0.12 | 69 | 1006.0 |
| 20260903221551 | 84 | 86 | 0.0 | 7.8 | 0.00 | 0.12 | 0.12 | 69 | 1006.1 |
| 20260903220115 | 85 | 277 | 0.0 | 7.8 | 0.00 | 0.12 | 0.12 | 68 | 1006.1 |
| 20260903214544 | 85 | 242 | 0.9 | 7.8 | 0.00 | 0.12 | 0.12 | 67 | 1005.8 |
| 20260903213039 | 85 | 249 | 0.0 | 7.8 | 0.00 | 0.12 | 0.12 | 67 | 1005.9 |
| 20260903211535 | 85 | 163 | 0.0 | 12.2 | 0.00 | 0.12 | 0.12 | 67 | 1006.2 |
| 20260903210031 | 85 | 48 | 0.9 | 10.4 | 0.00 | 0.12 | 0.12 | 68 | 1006.2 |
| 20260903204531 | 84 | 111 | 0.0 | 7.0 | 0.00 | 0.12 | 0.12 | 67 | 1006.4 |
| 20260903203021 | 84 | 349 | 0.9 | 10.4 | 0.00 | 0.12 | 0.12 | 68 | 1006.4 |
| 20260903201517 | 83 | 111 | 0.0 | 10.4 | 0.00 | 0.12 | 0.12 | 69 | 1006.5 |
| 20260903200013 | 82 | 163 | 0.0 | 4.3 | 0.00 | 0.12 | 0.12 | 69 | 1006.7 |
| 20260903194508 | 80 | 117 | 0.0 | 6.1 | 0.00 | 0.12 | 0.12 | 68 | 1006.9 |
| 20260903193004 | 79 | 17 | 0.0 | 9.6 | 0.00 | 0.12 | 0.12 | 65 | 1007.2 |
| 20260903191600 | 78 | 180 | 0.9 | 9.6 | 0.00 | 0.12 | 0.12 | 54 | 1007.5 |
| 20260903190054 | 75 | 342 | 0.0 | 5.2 | 0.00 | 0.12 | 0.12 | 29 | 1007.7 |
| 20260903184550 | 74 | 25 | 0.0 | 5.2 | 0.00 | 0.12 | 0.12 | 26 | 1008.0 |
| 20260903183047 | 74 | 325 | 0.0 | 0.9 | 0.00 | 0.12 | 0.12 | 27 | 1008.3 |
| 20260903181541 | 74 | 112 | 0.0 | 6.1 | 0.00 | 0.12 | 0.12 | 36 | 1008.8 |
| 20260903180045 | 74 | 224 | 0.0 | 3.5 | 0.00 | 0.12 | 0.12 | 45 | 1008.4 |
| 20260903174535 | 74 | 355 | 0.0 | 0.0 | 0.00 | 0.12 | 0.12 | 46 | 1008.7 |
| 20260903173027 | 73 | 241 | 0.0 | 0.0 | 0.00 | 0.12 | 0.12 | 39 | 1009.0 |
| 20260903171529 | 73 | 240 | 0.0 | 0.0 | 0.00 | 0.12 | 0.12 | 31 | 1008.9 |
| 20260903170033 | 72 | 9 | 0.0 | 4.3 | 0.01 | 0.12 | 0.12 | 16 | 1009.1 |
| 20260903164520 | 71 | 243 | 0.0 | 4.3 | 0.01 | 0.12 | 0.12 | 100 | 1009.7 |
| 20260903163015 | 70 | 103 | 0.0 | 0.0 | 0.01 | 0.12 | 0.12 | 100 | 1009.9 |
| 20260903161505 | 69 | 240 | 0.0 | 0.0 | 0.01 | 0.12 | 0.12 | 100 | 1009.7 |
| 20260903160100 | 68 | 111 | 0.0 | 0.0 | 0.00 | 0.11 | 0.11 | 100 | 1009.9 |
| 20260903154556 | 68 | 252 | 0.0 | 0.0 | 0.00 | 0.11 | 0.11 | 100 | 1010.7 |
| 20260903153051 | 68 | 295 | 0.0 | 0.0 | 0.03 | 0.11 | 0.11 | 100 | 1010.7 |
| 20260903151550 | 68 | 180 | 0.0 | 0.0 | 0.03 | 0.11 | 0.11 | 100 | 1010.6 |
| 20260903150104 | 68 | 226 | 2.6 | 10.4 | 0.03 | 0.11 | 0.11 | 100 | 1011.8 |
| 20260903144538 | 68 | 200 | 0.9 | 6.1 | 0.02 | 0.10 | 0.10 | 100 | 1011.2 |
| 20260903143033 | 69 | 88 | 0.0 | 0.0 | 0.00 | 0.08 | 0.08 | 100 | 1010.7 |
| 20260903141535 | 69 | 88 | 0.0 | 0.0 | 0.00 | 0.08 | 0.08 | 100 | 1010.3 |
| 20260903140036 | 69 | 91 | 0.0 | 3.5 | 0.00 | 0.08 | 0.08 | 100 | 1009.8 |
| 20260903134520 | 69 | 309 | 0.0 | 0.0 | 0.00 | 0.08 | 0.08 | 100 | 1009.7 |